• In Hungary
  • List of Countries
  • For 7 days
  • Water Temperature
  • Satellite Maps
  • Weather Map
  • News
  • Weather Widgets
  • user-avatar
    Login

    Hourly Weather Wieliszewo

    Today, 22 October, Monday

    Time Temperature Precipitation Wind Pressure Humidity
    00:00 +7°C° 0 mm 5 mps 761 mmHg 84%
    01:00 +7°C° 0 mm 6 mps 761 mmHg 82%
    02:00 +5°C° 0 mm 6 mps 761 mmHg 82%
    03:00 +5°C° 0 mm 6 mps 760 mmHg 82%
    04:00 +5°C° 0 mm 6 mps 760 mmHg 82%
    05:00 +5°C° 0 mm 6 mps 760 mmHg 82%
    06:00 +7°C° 0 mm 6 mps 760 mmHg 83%
    07:00 +7°C° 0 mm 6 mps 759 mmHg 82%
    08:00 +7°C° 0.2 mm 6 mps 759 mmHg 81%
    09:00 +8°C° 0.2 mm 6 mps 759 mmHg 81%
    10:00 +9°C° 0.2 mm 6 mps 759 mmHg 80%
    11:00 +9°C° 0.3 mm 6 mps 759 mmHg 80%
    12:00 +9°C° 0.3 mm 6 mps 759 mmHg 80%
    13:00 +10°C° 0.3 mm 6 mps 759 mmHg 79%
    14:00 +10°C° 0 mm 6 mps 759 mmHg 75%
    15:00 +9°C° 0 mm 6 mps 759 mmHg 71%
    16:00 +9°C° 0 mm 7 mps 759 mmHg 67%
    17:00 +9°C° 0 mm 6 mps 759 mmHg 69%
    18:00 +8°C° 0 mm 6 mps 759 mmHg 71%
    19:00 +7°C° 0 mm 6 mps 760 mmHg 73%
    20:00 +7°C° 0 mm 6 mps 759 mmHg 74%
    21:00 +7°C° 0 mm 5 mps 759 mmHg 75%
    22:00 +7°C° 0 mm 5 mps 759 mmHg 77%
    23:00 +5°C° 0 mm 6 mps 759 mmHg 77%

    Tomorrow, 23 October, Tuesday

    Time Temperature Precipitation Wind Pressure Humidity
    00:00 +5°C° 0 mm 6 mps 758 mmHg 78%
    01:00 +5°C° 0 mm 6 mps 757 mmHg 79%
    02:00 +5°C° 0.3 mm 7 mps 756 mmHg 79%
    03:00 +5°C° 0.3 mm 8 mps 755 mmHg 80%
    04:00 +6°C° 0.3 mm 8 mps 754 mmHg 80%
    05:00 +5°C° 1.1 mm 9 mps 752 mmHg 81%
    06:00 +5°C° 1.1 mm 10 mps 751 mmHg 81%
    07:00 +4°C° 1.1 mm 12 mps 749 mmHg 82%
    08:00 +5°C° 2 mm 12 mps 748 mmHg 83%
    09:00 +5°C° 2 mm 12 mps 747 mmHg 84%
    10:00 +7°C° 2 mm 12 mps 745 mmHg 85%
    11:00 +8°C° 1.9 mm 12 mps 744 mmHg 84%
    12:00 +8°C° 1.9 mm 12 mps 743 mmHg 83%
    13:00 +9°C° 1.9 mm 12 mps 742 mmHg 82%
    14:00 +9°C° 0.4 mm 11 mps 742 mmHg 78%
    15:00 +9°C° 0.4 mm 11 mps 741 mmHg 75%
    16:00 +9°C° 0.4 mm 11 mps 741 mmHg 71%
    17:00 +9°C° 0.1 mm 11 mps 740 mmHg 72%
    18:00 +8°C° 0.1 mm 11 mps 740 mmHg 72%
    19:00 +8°C° 0.1 mm 10 mps 740 mmHg 72%
    20:00 +8°C° 0.2 mm 11 mps 739 mmHg 71%
    21:00 +8°C° 0.2 mm 11 mps 739 mmHg 69%
    22:00 +8°C° 0.2 mm 11 mps 738 mmHg 67%
    23:00 +7°C° 0.3 mm 12 mps 738 mmHg 65%

    Day after tomorrow, 24 October, Wednesday

    Time Temperature Precipitation Wind Pressure Humidity
    00:00 +5°C° 0.3 mm 12 mps 738 mmHg 63%
    01:00 +5°C° 0.3 mm 13 mps 739 mmHg 62%
    02:00 +4°C° 0.1 mm 12 mps 739 mmHg 58%
    03:00 +4°C° 0.1 mm 12 mps 740 mmHg 55%
    04:00 +4°C° 0.1 mm 11 mps 741 mmHg 51%
    05:00 +3°C° 0 mm 11 mps 742 mmHg 52%
    06:00 +3°C° 0 mm 11 mps 743 mmHg 52%
    07:00 +3°C° 0 mm 11 mps 743 mmHg 53%
    08:00 +3°C° 0 mm 12 mps 744 mmHg 52%
    09:00 +4°C° 0 mm 12 mps 744 mmHg 51%
    10:00 +5°C° 0 mm 13 mps 745 mmHg 50%
    11:00 +5°C° 0 mm 12 mps 746 mmHg 50%
    12:00 +5°C° 0 mm 12 mps 747 mmHg 49%
    13:00 +5°C° 0 mm 12 mps 747 mmHg 48%
    14:00 +6°C° 0 mm 11 mps 748 mmHg 50%
    15:00 +6°C° 0 mm 10 mps 749 mmHg 51%
    16:00 +6°C° 0 mm 9 mps 749 mmHg 53%
    17:00 +5°C° 0 mm 8 mps 749 mmHg 55%
    18:00 +5°C° 0 mm 7 mps 750 mmHg 56%
    19:00 +5°C° 0 mm 6 mps 750 mmHg 58%
    20:00 +4°C° 0 mm 6 mps 750 mmHg 61%
    21:00 +5°C° 0 mm 5 mps 750 mmHg 63%
    22:00 +5°C° 0 mm 4 mps 750 mmHg 65%
    23:00 +5°C° 0 mm 4 mps 749 mmHg 68%

    25 October, Thursday

    Time Temperature Precipitation Wind Pressure Humidity
    00:00 +5°C° 0 mm 4 mps 749 mmHg 71%
    01:00 +5°C° 0 mm 4 mps 748 mmHg 74%
    02:00 +5°C° 0.7 mm 5 mps 747 mmHg 79%
    03:00 +5°C° 0.7 mm 6 mps 745 mmHg 85%
    04:00 +6°C° 0.7 mm 7 mps 744 mmHg 91%
    05:00 +7°C° 0.6 mm 8 mps 744 mmHg 86%
    06:00 +8°C° 0.6 mm 10 mps 743 mmHg 81%
    07:00 +9°C° 0.6 mm 11 mps 742 mmHg 76%
    08:00 +9°C° 0.1 mm 11 mps 742 mmHg 73%
    09:00 +9°C° 0.1 mm 10 mps 743 mmHg 71%
    10:00 +9°C° 0.1 mm 10 mps 743 mmHg 68%
    11:00 +9°C° 0.1 mm 10 mps 743 mmHg 66%
    12:00 +9°C° 0.1 mm 10 mps 744 mmHg 65%
    13:00 +11°C° 0.1 mm 10 mps 744 mmHg 63%
    14:00 +10°C° 0 mm 9 mps 745 mmHg 65%
    15:00 +10°C° 0 mm 9 mps 745 mmHg 67%
    16:00 +10°C° 0 mm 8 mps 745 mmHg 69%
    17:00 +9°C° 0.1 mm 8 mps 746 mmHg 70%
    18:00 +9°C° 0.1 mm 7 mps 746 mmHg 71%
    19:00 +9°C° 0.1 mm 7 mps 746 mmHg 72%
    20:00 +8°C° 0 mm 6 mps 747 mmHg 73%
    21:00 +7°C° 0 mm 5 mps 747 mmHg 73%
    22:00 +6°C° 0 mm 4 mps 748 mmHg 73%
    23:00 +6°C° 0 mm 4 mps 748 mmHg 75%

    26 October, Friday

    Time Temperature Precipitation Wind Pressure Humidity
    00:00 +5°C° 0 mm 3 mps 748 mmHg 77%
    01:00 +5°C° 0 mm 3 mps 748 mmHg 78%
    02:00 +6°C° 0 mm 2 mps 748 mmHg 79%
    03:00 +5°C° 0 mm 2 mps 748 mmHg 79%
    04:00 +5°C° 0 mm 2 mps 748 mmHg 79%
    05:00 +6°C° 0 mm 2 mps 748 mmHg 81%
    06:00 +6°C° 0 mm 2 mps 748 mmHg 82%
    07:00 +6°C° 0 mm 2 mps 748 mmHg 83%
    08:00 +7°C° 0 mm 3 mps 748 mmHg 81%
    09:00 +7°C° 0 mm 4 mps 748 mmHg 80%
    10:00 +8°C° 0 mm 4 mps 748 mmHg 78%
    11:00 +9°C° 0.1 mm 5 mps 747 mmHg 76%
    12:00 +9°C° 0.1 mm 5 mps 747 mmHg 73%
    13:00 +9°C° 0.1 mm 5 mps 746 mmHg 70%
    14:00 +9°C° 0.3 mm 5 mps 746 mmHg 74%
    15:00 +9°C° 0.3 mm 6 mps 745 mmHg 77%
    16:00 +9°C° 0.3 mm 6 mps 745 mmHg 80%
    17:00 +9°C° 0.2 mm 6 mps 744 mmHg 81%
    18:00 +9°C° 0.2 mm 6 mps 744 mmHg 82%
    19:00 +9°C° 0.2 mm 7 mps 744 mmHg 83%
    20:00 +9°C° 0.2 mm 7 mps 743 mmHg 84%
    21:00 +9°C° 0.2 mm 7 mps 743 mmHg 84%
    22:00 +9°C° 0.2 mm 7 mps 742 mmHg 84%
    23:00 +9°C° 0.1 mm 7 mps 742 mmHg 85%

    27 October, Saturday

    Time Temperature Precipitation Wind Pressure Humidity
    00:00 +8°C° 0.1 mm 7 mps 742 mmHg 85%
    01:00 +8°C° 0.1 mm 6 mps 742 mmHg 86%
    02:00 +8°C° 0.1 mm 6 mps 742 mmHg 86%
    03:00 +8°C° 0.1 mm 6 mps 741 mmHg 86%
    04:00 +8°C° 0.1 mm 6 mps 741 mmHg 85%
    05:00 +7°C° 0.1 mm 6 mps 741 mmHg 85%
    06:00 +7°C° 0.1 mm 6 mps 742 mmHg 84%
    07:00 +7°C° 0.1 mm 6 mps 742 mmHg 83%
    08:00 +7°C° 0 mm 6 mps 742 mmHg 79%
    09:00 +7°C° 0 mm 6 mps 742 mmHg 74%
    10:00 +8°C° 0 mm 6 mps 743 mmHg 70%
    11:00 +8°C° 0 mm 6 mps 743 mmHg 66%
    12:00 +8°C° 0 mm 6 mps 743 mmHg 62%
    13:00 +9°C° 0 mm 6 mps 743 mmHg 58%
    14:00 +8°C° 0 mm 5 mps 743 mmHg 61%
    15:00 +8°C° 0 mm 4 mps 743 mmHg 64%
    16:00 +8°C° 0 mm 3 mps 743 mmHg 67%
    17:00 +8°C° 0 mm 3 mps 743 mmHg 68%
    18:00 +8°C° 0 mm 3 mps 744 mmHg 70%
    19:00 +7°C° 0 mm 2 mps 744 mmHg 72%
    20:00 +7°C° 0 mm 2 mps 744 mmHg 72%
    21:00 +7°C° 0 mm 2 mps 744 mmHg 73%
    22:00 +8°C° 0 mm 1 mps 744 mmHg 73%
    23:00 +8°C° 0 mm 1 mps 744 mmHg 73%

    28 October, Sunday

    Time Temperature Precipitation Wind Pressure Humidity
    00:00 +8°C° 0 mm 1 mps 744 mmHg 73%
    01:00 +8°C° 0 mm 1 mps 744 mmHg 73%
    02:00 +8°C° 0 mm 1 mps 744 mmHg 74%
    03:00 +7°C° 0 mm 1 mps 743 mmHg 76%
    04:00 +7°C° 0 mm 1 mps 743 mmHg 77%
    05:00 +7°C° 0.1 mm 1 mps 743 mmHg 78%
    06:00 +7°C° 0.1 mm 1 mps 743 mmHg 79%
    07:00 +7°C° 0.1 mm 1 mps 743 mmHg 81%
    08:00 +7°C° 0.2 mm 2 mps 743 mmHg 80%
    09:00 +7°C° 0.2 mm 2 mps 744 mmHg 79%
    10:00 +7°C° 0.2 mm 3 mps 744 mmHg 78%
    11:00 +7°C° 0.4 mm 3 mps 744 mmHg 78%
    12:00 +7°C° 0.4 mm 3 mps 744 mmHg 79%
    13:00 +8°C° 0.4 mm 3 mps 744 mmHg 79%
    14:00 +7°C° 0.8 mm 3 mps 744 mmHg 82%
    15:00 +7°C° 0.8 mm 3 mps 744 mmHg 85%
    16:00 +7°C° 0.8 mm 3 mps 744 mmHg 87%
    17:00 +7°C° 0.6 mm 3 mps 744 mmHg 88%
    18:00 +7°C° 0.6 mm 2 mps 745 mmHg 89%
    19:00 +6°C° 0.6 mm 2 mps 745 mmHg 91%
    20:00 +6°C° 0.7 mm 2 mps 746 mmHg 91%
    21:00 +5°C° 0.7 mm 3 mps 746 mmHg 91%
    22:00 +5°C° 0.7 mm 3 mps 746 mmHg 91%
    23:00 +5°C° 1.2 mm 4 mps 747 mmHg 89%
    Show more